St. George, AK

11:05 PM AKDT on June 27, 2017 (GMT -0800)
Saint George

Weather History for PAPB - October, 2012

Change the Weather History Date:

Monday, October 8, 2012

  Actual Average Record
Temperature  
Mean Temperature 44 °F -  
Max Temperature 46 °F 42 °F 48 °F (2016)
Min Temperature 42 °F 35 °F 28 °F (2011)
Degree Days  
Heating Degree Days 21    
Moisture  
Dew Point 45 °F    
Average Humidity 99    
Maximum Humidity 100    
Minimum Humidity 96    
Precipitation  
Precipitation 0.52 in - - ()
Sea Level Pressure  
Sea Level Pressure 29.83 in    
Wind  
Wind Speed 18 mph (East)    
Max Wind Speed 28 mph    
Max Gust Speed 33 mph    
Visibility 4 miles    
Events Fog , Rain    
Averages and records for this station are not official NWS values.
T = Trace of Precipitation, MM = Missing Value Source: NWS Daily Summary

Daily Weather History Graph

Daily Weather History Graph

Search for Another Location

Airport or City:

Trip Planner

Search our weather history database for the weather conditions in past years. The results will help you decide how hot, cold, wet, or windy it might be!

Date:

Astronomy

Oct. 08, 2012 Rise Set
Actual Time 9:37 AM AKDT 8:32 PM AKDT
Civil Twilight 9:00 AM AKDT 9:10 PM AKDT
Nautical Twilight 8:16 AM AKDT 9:54 PM AKDT
Astronomical Twilight 7:31 AM AKDT 10:38 PM AKDT
Moon 1:16 AM AKDT (10/8) 5:38 PM AKDT (10/8)
Length of Visible Light 12h 10m
Length of Day
10h 54m
Last Quarter, 45% of the Moon is Illuminated
Oct 8
Last Quarter
Oct 15
New
Oct 21
First Quarter
Oct 29
Full
Nov 6
Last Quarter

Hourly Weather History & Observations

Time (AKDT) Temp. Windchill Dew Point Humidity Pressure Visibility Wind Dir Wind Speed Gust Speed Precip Events Conditions
12:03 AM 42.8 °F 32.7 °F 42.8 °F 100% 29.83 in 3.0 mi NE 27.6 mph 33.4 mph N/A   Overcast
12:53 AM 42.1 °F 31.9 °F 42.1 °F 100% 29.80 in 3.0 mi NE 26.5 mph 33.4 mph 0.01 in   Overcast
1:23 AM 42.8 °F 33.8 °F 42.8 °F 100% 29.85 in 2.5 mi NE 21.9 mph - N/A   Overcast
1:48 AM 42.8 °F 34.0 °F 42.8 °F 100% 29.85 in 1.2 mi NE 20.7 mph - N/A   Overcast
1:53 AM 42.1 °F 33.3 °F 42.1 °F 100% 29.82 in 1.0 mi NE 19.6 mph - N/A   Mist
2:03 AM 42.8 °F 33.8 °F 42.8 °F 100% 29.85 in 0.8 mi NE 21.9 mph - N/A   Mist
2:53 AM 43.0 °F 34.5 °F 43.0 °F 100% 29.82 in 0.5 mi NE 19.6 mph - N/A Fog Fog
3:33 AM 44.6 °F 37.8 °F 44.6 °F 100% 29.86 in 1.2 mi East 15.0 mph - 0.00 in Rain Light Rain
3:36 AM 44.6 °F 37.8 °F 44.6 °F 100% 29.86 in 3.0 mi East 15.0 mph - 0.00 in Rain Light Rain
3:38 AM 44.6 °F 38.4 °F 44.6 °F 100% 29.86 in 4.0 mi ENE 12.7 mph - 0.00 in Rain Light Rain
3:49 AM 44.6 °F 37.8 °F 44.6 °F 100% 29.85 in 1.5 mi NE 15.0 mph - 0.01 in Rain Light Rain
3:53 AM 44.1 °F 37.1 °F 44.1 °F 100% 29.82 in 1.2 mi ENE 15.0 mph - 0.01 in Rain Light Rain
4:00 AM 44.6 °F 38.1 °F 44.6 °F 100% 29.85 in 1.5 mi ENE 13.8 mph - 0.00 in Rain Light Rain
4:04 AM 44.6 °F 38.4 °F 44.6 °F 100% 29.85 in 2.5 mi ENE 12.7 mph - 0.00 in Rain Light Rain
4:11 AM 44.6 °F 37.8 °F 44.6 °F 100% 29.85 in 9.0 mi ENE 15.0 mph - 0.00 in   Overcast
4:53 AM 46.0 °F 39.3 °F 46.0 °F 100% 29.82 in 8.0 mi East 16.1 mph - 0.02 in Rain Light Rain
5:18 AM 44.6 °F 38.4 °F 44.6 °F 100% 29.85 in 7.0 mi NE 12.7 mph - 0.01 in Rain Light Rain
5:36 AM 44.6 °F 38.4 °F 44.6 °F 100% 29.85 in 5.0 mi NE 12.7 mph - 0.01 in Rain Light Rain
5:53 AM 44.1 °F 38.1 °F 44.1 °F 100% 29.82 in 6.0 mi NE 11.5 mph - 0.03 in Rain Rain
6:02 AM 44.6 °F 39.2 °F 44.6 °F 100% 29.85 in 8.0 mi NE 10.4 mph - 0.01 in Rain Light Rain
6:36 AM 44.6 °F 38.8 °F 44.6 °F 100% 29.85 in 6.0 mi NE 11.5 mph - 0.05 in Rain Rain
6:53 AM 44.1 °F 37.1 °F 44.1 °F 100% 29.81 in 5.0 mi NE 15.0 mph - 0.07 in Rain Rain
7:01 AM 44.6 °F 38.4 °F 44.6 °F 100% 29.85 in 4.0 mi NE 12.7 mph - 0.01 in Rain Rain
7:09 AM 44.6 °F 38.4 °F 44.6 °F 100% 29.85 in 6.0 mi ENE 12.7 mph - 0.02 in Rain Light Rain
7:53 AM 46.0 °F 39.9 °F 45.0 °F 96% 29.81 in 4.0 mi NE 13.8 mph - 0.05 in Rain Light Rain
8:00 AM 46.4 °F 40.4 °F 46.4 °F 100% 29.84 in 4.0 mi ENE 13.8 mph - 0.00 in Rain Light Rain
8:36 AM 46.4 °F 40.1 °F 46.4 °F 100% 29.84 in 4.0 mi East 15.0 mph - 0.01 in Rain Light Rain
8:48 AM 46.4 °F 40.1 °F 46.4 °F 100% 29.84 in 2.5 mi East 15.0 mph - 0.01 in Rain Light Rain
8:53 AM 46.9 °F - 46.0 °F 97% 29.81 in 2.5 mi East 16.1 mph - 0.01 in Rain Light Rain
9:03 AM 46.4 °F 40.7 °F 46.4 °F 100% 29.84 in 3.0 mi East 12.7 mph - 0.00 in Rain Light Rain
9:53 AM 46.0 °F 39.9 °F 46.0 °F 100% 29.81 in 4.0 mi ESE 13.8 mph - 0.00 in   Overcast
10:39 AM 46.4 °F 40.1 °F 46.4 °F 100% 29.84 in 2.5 mi ESE 15.0 mph 21.9 mph 0.00 in   Overcast
10:48 AM 46.4 °F 39.8 °F 46.4 °F 100% 29.84 in 1.5 mi ESE 16.1 mph - 0.00 in Rain Light Rain
10:53 AM 46.0 °F 39.3 °F 46.0 °F 100% 29.81 in 1.5 mi ESE 16.1 mph 24.2 mph 0.00 in Rain Light Rain
11:38 AM 46.4 °F 40.1 °F 46.4 °F 100% 29.84 in 1.8 mi ESE 15.0 mph 20.7 mph 0.00 in Rain Light Rain
11:51 AM 46.4 °F 40.1 °F 46.4 °F 100% 29.85 in 2.5 mi ESE 15.0 mph - 0.00 in Rain Light Rain
11:53 AM 46.9 °F - 46.0 °F 97% 29.81 in 2.5 mi ESE 15.0 mph - 0.00 in Rain Light Rain
12:05 PM 46.4 °F 39.8 °F 46.4 °F 100% 29.85 in 2.0 mi SE 16.1 mph - 0.01 in Rain Light Rain
12:34 PM 46.4 °F 39.2 °F 46.4 °F 100% 29.85 in 3.0 mi SE 18.4 mph 23.0 mph 0.03 in Rain Rain
12:53 PM 46.9 °F - 46.0 °F 97% 29.82 in 3.0 mi SE 16.1 mph 20.7 mph 0.05 in Rain Light Rain
1:02 PM 46.4 °F 40.1 °F 46.4 °F 100% 29.85 in 3.0 mi SE 15.0 mph - 0.01 in Rain Light Rain
1:53 PM 46.9 °F - 46.0 °F 97% 29.82 in 5.0 mi ESE 15.0 mph - 0.06 in Rain Light Rain
2:32 PM 46.4 °F 41.1 °F 46.4 °F 100% 29.85 in 3.0 mi ESE 11.5 mph - 0.02 in Rain Light Rain
2:48 PM 46.4 °F 39.8 °F 46.4 °F 100% 29.85 in 2.5 mi SE 16.1 mph - 0.03 in Rain Rain
2:53 PM 46.9 °F - 46.0 °F 97% 29.82 in 3.0 mi SE 15.0 mph - 0.03 in Rain Rain
3:01 PM 46.4 °F 40.7 °F 46.4 °F 100% 29.85 in 4.0 mi SE 12.7 mph - 0.01 in Rain Light Rain
3:12 PM 46.4 °F 40.1 °F 46.4 °F 100% 29.85 in 8.0 mi SE 15.0 mph - 0.01 in Rain Light Rain
3:38 PM 46.4 °F 40.7 °F 46.4 °F 100% 29.85 in 3.0 mi SE 12.7 mph - 0.04 in Rain Rain
3:53 PM 46.9 °F - 46.0 °F 97% 29.81 in 4.0 mi SE 15.0 mph - 0.06 in Rain Rain
4:53 PM 46.9 °F - 46.0 °F 97% 29.80 in 6.0 mi SE 17.3 mph 24.2 mph 0.06 in Rain Light Rain
5:34 PM 46.4 °F 39.2 °F 46.4 °F 100% 29.83 in 9.0 mi SE 18.4 mph - 0.02 in Rain Light Rain
5:53 PM 46.9 °F - 46.0 °F 97% 29.80 in 10.0 mi SE 16.1 mph 25.3 mph 0.03 in Rain Light Rain
6:25 PM 46.4 °F 39.8 °F 46.4 °F 100% 29.83 in 5.0 mi SE 16.1 mph 25.3 mph 0.01 in Rain Light Rain
6:53 PM 46.0 °F 40.2 °F 46.0 °F 100% 29.80 in 5.0 mi SE 12.7 mph 23.0 mph 0.02 in Rain Light Rain
7:20 PM 46.4 °F 39.0 °F 46.4 °F 100% 29.83 in 7.0 mi SE 19.6 mph - 0.00 in   Overcast
7:36 PM 46.4 °F 38.7 °F 46.4 °F 100% 29.83 in 2.0 mi SE 20.7 mph 27.6 mph 0.00 in Rain Light Rain
7:53 PM 46.0 °F 38.3 °F 46.0 °F 100% 29.80 in 2.5 mi SE 20.7 mph 27.6 mph 0.00 in Rain Light Rain
8:03 PM 46.4 °F 38.7 °F 46.4 °F 100% 29.83 in 2.5 mi SE 20.7 mph 29.9 mph 0.01 in Rain Light Rain
8:06 PM 46.4 °F 39.5 °F 46.4 °F 100% 29.83 in 3.0 mi SE 17.3 mph 28.8 mph 0.01 in Rain Light Rain
8:43 PM 46.4 °F 38.7 °F 46.4 °F 100% 29.84 in 7.0 mi SE 20.7 mph 26.5 mph 0.01 in   Overcast
8:53 PM 46.0 °F 38.3 °F 46.0 °F 100% 29.81 in 7.0 mi SE 20.7 mph 28.8 mph 0.01 in   Overcast
9:53 PM 46.9 °F - 46.0 °F 97% 29.81 in 8.0 mi SE 23.0 mph 27.6 mph N/A   Overcast
10:53 PM 46.9 °F - 46.0 °F 97% 29.82 in 8.0 mi SE 19.6 mph 27.6 mph N/A   Clear